PEGASUS DEB, 39315

Orbit data source: Space-Track

PEGASUS DEB, 39315 is space debris in LEO originally from a launch on Thu, 19 May 1994 UTC launched from the Air Force Western Test Range (AFWTR). Debris objects in space refer to the collection of defunct objects orbiting the Earth. Examples of debris include non-operational satellites, rocket bodies, and fragments generated from explosions, collisions, or faulty payload assembly.

Loading next visibility...
Identifier
39315, 1994-029AFA
Orbit
LEO
Country
Flag of USUS
Related business
Manufacturer
Unknown
Mission
Spacecraft
Bus & Motor
Unknown
Mass
Unknown
Launch date (UTC)
1994-05-19 (32 years ago)
Launch vehicle
Unknown
Launch site
Air Force Western Test Range (AFWTR)
Object type
Payload
Rocket body
Debris
Shape & HBR
Unknown shape, 0.1 m
Radar Cross Section
Small (<0.1 m²)

Expand to show TLE details & history
Last TLE update: 1 day ago

TLE from 1 day ago
0 PEGASUS DEB
1 39315U 94029AFA 26118.31703530  .00002980  00000-0  89057-3 0  9996
2 39315  81.4966 332.5348 0386480 165.0547 196.2444 14.07185227655410
Epoch: 2026-04-28T07:36Z
TLE epoch observation values (Epoch: 2026-04-28T07:36:31.849Z)
Latitude
Longitude
2.10801°
Altitude
1,141.694 km
Speed
7.145 km/s
True Right ascension
22h 10m 08s
True Declination
0° 00' 00"
Sunlit
Object was in daylight at epoch
Visualization orbit readout
Latitude
Unknown
Longitude
Unknown
Altitude
Unknown
Speed
Unknown
Apparent Right ascension
Unknown
Apparent Declination
Unknown
Sunlit
N/A
Visualization observer readout
Local Sidereal Time
16:26:56
Azimuth
Unknown
Elevation
Unknown
Doppler factor
Unknown
Orbital elements
Apogee altitude
1,146.158 km
Perigee altitude
586.201 km
Semi-major axis
7,244.317 km
Eccentricity
0.03865
Inclination
81.4966°
RAAN
332.5348°
Arg. of periapsis
165.0547°
True anomaly
195.06062°
Mean anomaly
196.2444°
Eccentric anomaly
195.64716°
Mean motion
3.52004 °/min
Orbital period
102.27 mins
BSTAR
0.00089057
Loading maneuver chart data...
Computing Atmospheric mass density...
Loading historical data...
Loading historical data...
Loading historical data...
Loading historical data...
Loading historical data...
Loading historical data...
Loading historical data...

Documentation

Showing up to 5 results
|